Time,TemperatureF,DewpointF,PressureIn,WindDirection,WindDirectionDegrees,WindSpeedMPH,WindSpeedGustMPH,Humidity,HourlyPrecipIn,Conditions,Clouds,dailyrainin,SoftwareType,DateUTC
2013-06-08 00:03:00,56.0,56.0,29.78,ENE,63,3.0,11.0,100,0.06,,,1.75,,2013-06-08 04:03:00,
2013-06-08 00:13:00,56.0,56.0,29.78,ENE,63,3.0,11.0,100,0.06,,,1.75,,2013-06-08 04:13:00,
2013-06-08 00:23:00,55.0,55.0,29.78,ENE,60,3.0,11.0,100,0.10,,,1.79,,2013-06-08 04:23:00,
2013-06-08 00:33:00,56.0,56.0,29.77,NE,53,5.0,13.0,100,0.01,,,1.79,,2013-06-08 04:33:00,
2013-06-08 00:42:00,56.0,56.0,29.77,NE,53,5.0,13.0,100,0.01,,,1.79,,2013-06-08 04:42:00,
2013-06-08 00:53:00,55.0,55.0,29.77,ENE,73,0.0,13.0,100,0.04,,,1.81,,2013-06-08 04:53:00,
2013-06-08 01:02:00,56.0,56.0,29.75,NE,51,0.0,10.0,100,0.11,,,1.87,,2013-06-08 05:02:00,
2013-06-08 01:12:00,56.0,56.0,29.75,NE,51,0.0,10.0,100,0.11,,,1.87,,2013-06-08 05:12:00,
2013-06-08 01:22:00,55.0,55.0,29.75,NE,52,0.0,1.0,100,0.13,,,1.89,,2013-06-08 05:22:00,
2013-06-08 01:32:00,55.0,55.0,29.71,East,92,2.0,13.0,100,0.00,,,1.88,,2013-06-08 05:32:00,
2013-06-08 01:42:00,55.0,55.0,29.71,East,92,2.0,13.0,100,0.00,,,1.88,,2013-06-08 05:42:00,
2013-06-08 01:52:00,55.0,55.0,29.71,ENE,72,0.0,12.0,100,0.00,,,1.88,,2013-06-08 05:52:00,
2013-06-08 02:02:00,55.0,55.0,29.71,NE,52,2.0,10.0,100,0.22,,,2.10,,2013-06-08 06:02:00,
2013-06-08 02:13:00,55.0,55.0,29.71,NE,52,2.0,10.0,100,0.22,,,2.10,,2013-06-08 06:13:00,
2013-06-08 02:22:00,55.0,55.0,29.71,NE,48,3.0,8.0,100,0.29,,,2.17,,2013-06-08 06:22:00,
2013-06-08 02:32:00,55.0,55.0,29.70,ENE,63,3.0,8.0,100,0.02,,,2.19,,2013-06-08 06:32:00,
2013-06-08 02:42:00,55.0,55.0,29.70,ENE,63,3.0,8.0,100,0.02,,,2.19,,2013-06-08 06:42:00,
2013-06-08 02:52:00,55.0,55.0,29.70,ENE,68,1.0,10.0,100,0.14,,,2.31,,2013-06-08 06:52:00,
2013-06-08 03:02:00,55.0,55.0,29.67,NE,52,0.0,8.0,100,0.19,,,2.36,,2013-06-08 07:02:00,
2013-06-08 03:12:00,55.0,55.0,29.67,NE,52,0.0,8.0,100,0.19,,,2.36,,2013-06-08 07:12:00,
2013-06-08 03:22:00,55.0,55.0,29.67,NE,39,2.0,13.0,100,0.28,,,2.45,,2013-06-08 07:22:00,
2013-06-08 03:32:00,55.0,55.0,29.65,NE,52,5.0,16.0,100,0.03,,,2.48,,2013-06-08 07:32:00,
2013-06-08 03:42:00,55.0,55.0,29.65,NE,52,5.0,16.0,100,0.03,,,2.48,,2013-06-08 07:42:00,
2013-06-08 03:52:00,55.0,55.0,29.65,NE,45,0.0,11.0,100,0.03,,,2.48,,2013-06-08 07:52:00,
2013-06-08 04:02:00,55.0,55.0,29.64,ENE,72,0.0,12.0,100,0.11,,,2.56,,2013-06-08 08:02:00,
2013-06-08 04:12:00,55.0,55.0,29.64,ENE,72,0.0,12.0,100,0.11,,,2.56,,2013-06-08 08:12:00,
2013-06-08 04:22:00,55.0,55.0,29.64,NE,49,1.0,6.0,100,0.11,,,2.56,,2013-06-08 08:22:00,
2013-06-08 04:32:00,55.0,55.0,29.62,East,80,0.0,7.0,100,0.02,,,2.58,,2013-06-08 08:32:00,
2013-06-08 04:42:00,55.0,55.0,29.62,East,80,0.0,7.0,100,0.02,,,2.58,,2013-06-08 08:42:00,
2013-06-08 04:52:00,55.0,55.0,29.62,ENE,63,2.0,11.0,100,0.02,,,2.58,,2013-06-08 08:52:00,
2013-06-08 05:02:00,55.0,55.0,29.61,NE,47,2.0,11.0,100,0.02,,,2.58,,2013-06-08 09:02:00,
2013-06-08 05:12:00,55.0,55.0,29.61,NE,47,2.0,11.0,100,0.02,,,2.58,,2013-06-08 09:12:00,
2013-06-08 05:22:00,55.0,55.0,29.61,North,354,0.0,7.0,100,0.02,,,2.58,,2013-06-08 09:22:00,
2013-06-08 05:33:00,55.0,55.0,29.60,NE,40,0.0,8.0,100,0.00,,,2.58,,2013-06-08 09:33:00,
2013-06-08 05:43:00,55.0,55.0,29.60,NE,40,0.0,8.0,100,0.00,,,2.58,,2013-06-08 09:43:00,
2013-06-08 05:53:00,55.0,55.0,29.60,NNE,29,3.0,10.0,100,0.00,,,2.58,,2013-06-08 09:53:00,
2013-06-08 06:03:00,55.0,55.0,29.59,NNE,26,0.0,11.0,100,0.00,,,2.58,,2013-06-08 10:03:00,
2013-06-08 06:12:00,55.0,55.0,29.59,NNE,26,0.0,11.0,100,0.00,,,2.58,,2013-06-08 10:12:00,
2013-06-08 06:22:00,55.0,55.0,29.59,NE,41,2.0,8.0,100,0.00,,,2.58,,2013-06-08 10:22:00,
2013-06-08 06:33:00,55.0,55.0,29.58,NE,35,0.0,8.0,100,0.00,,,2.58,,2013-06-08 10:33:00,
2013-06-08 06:43:00,55.0,55.0,29.58,NE,35,0.0,8.0,100,0.00,,,2.58,,2013-06-08 10:43:00,
2013-06-08 06:52:00,55.0,55.0,29.58,NE,38,2.0,10.0,100,0.00,,,2.58,,2013-06-08 10:52:00,
2013-06-08 07:03:00,55.0,55.0,29.58,North,7,0.0,7.0,100,0.00,,,2.58,,2013-06-08 11:03:00,
2013-06-08 07:12:00,55.0,55.0,29.58,North,7,0.0,7.0,100,0.00,,,2.58,,2013-06-08 11:12:00,
2013-06-08 07:22:00,55.0,55.0,29.58,North,11,0.0,2.0,100,0.00,,,2.58,,2013-06-08 11:22:00,
2013-06-08 07:32:00,55.0,55.0,29.58,North,10,1.0,13.0,100,0.00,,,2.58,,2013-06-08 11:32:00,
2013-06-08 07:42:00,55.0,55.0,29.58,North,10,1.0,13.0,100,0.00,,,2.58,,2013-06-08 11:42:00,
2013-06-08 07:52:00,55.0,55.0,29.58,North,356,0.0,10.0,100,0.00,,,2.58,,2013-06-08 11:52:00,
2013-06-08 08:02:00,58.0,58.0,29.58,North,11,3.0,13.0,100,0.02,,,2.60,,2013-06-08 12:02:00,
2013-06-08 08:12:00,58.0,58.0,29.58,North,11,3.0,13.0,100,0.02,,,2.60,,2013-06-08 12:12:00,
2013-06-08 08:22:00,58.0,58.0,29.58,North,356,2.0,11.0,100,0.02,,,2.60,,2013-06-08 12:22:00,
2013-06-08 08:33:00,58.0,58.0,29.58,North,2,0.0,9.0,100,0.00,,,2.59,,2013-06-08 12:33:00,
2013-06-08 08:42:00,58.0,58.0,29.58,North,2,0.0,9.0,100,0.00,,,2.59,,2013-06-08 12:42:00,
2013-06-08 08:52:00,59.0,59.0,29.58,North,10,1.0,10.0,100,0.00,,,2.59,,2013-06-08 12:52:00,
2013-06-08 09:02:00,59.0,59.0,29.60,North,354,0.0,11.0,100,0.00,,,2.57,,2013-06-08 13:02:00,
2013-06-08 09:12:00,59.0,59.0,29.60,North,354,0.0,11.0,100,0.00,,,2.57,,2013-06-08 13:12:00,
2013-06-08 09:22:00,59.0,59.0,29.60,NW,312,0.0,5.0,100,0.00,,,2.57,,2013-06-08 13:22:00,
2013-06-08 09:32:00,60.0,60.0,29.64,WSW,249,0.0,11.0,100,0.01,,,2.56,,2013-06-08 13:32:00,
2013-06-08 09:42:00,60.0,60.0,29.64,WSW,249,0.0,11.0,100,0.01,,,2.56,,2013-06-08 13:42:00,
2013-06-08 09:52:00,60.0,60.0,29.64,NNW,332,1.0,14.0,100,0.01,,,2.55,,2013-06-08 13:52:00,
2013-06-08 10:02:00,60.0,60.0,29.65,NNW,336,1.0,12.0,100,0.01,,,2.54,,2013-06-08 14:02:00,
2013-06-08 10:12:00,60.0,60.0,29.65,NNW,336,1.0,12.0,100,0.01,,,2.54,,2013-06-08 14:12:00,
2013-06-08 10:22:00,61.0,61.0,29.65,NW,306,1.0,10.0,100,0.01,,,2.54,,2013-06-08 14:22:00,
2013-06-08 10:32:00,62.0,62.0,29.66,NNW,343,2.0,13.0,100,0.00,,,2.54,,2013-06-08 14:32:00,
2013-06-08 10:42:00,62.0,62.0,29.66,NNW,343,2.0,13.0,100,0.00,,,2.54,,2013-06-08 14:42:00,
2013-06-08 10:52:00,62.0,62.0,29.66,NNW,338,1.0,14.0,100,0.00,,,2.53,,2013-06-08 14:52:00,
2013-06-08 11:02:00,63.0,62.0,29.67,North,9,1.0,14.0,98,0.00,,,2.53,,2013-06-08 15:02:00,
2013-06-08 11:12:00,63.0,62.0,29.67,North,9,1.0,14.0,98,0.00,,,2.53,,2013-06-08 15:12:00,
2013-06-08 11:22:00,64.0,63.0,29.67,NW,325,2.0,12.0,97,0.00,,,2.53,,2013-06-08 15:22:00,
2013-06-08 11:33:00,64.0,61.0,29.68,WNW,296,0.0,4.0,91,0.00,,,2.52,,2013-06-08 15:33:00,
2013-06-08 11:42:00,64.0,61.0,29.68,WNW,296,0.0,4.0,91,0.00,,,2.52,,2013-06-08 15:42:00,
2013-06-08 11:53:00,66.0,62.0,29.68,WNW,286,1.0,5.0,88,0.00,,,2.50,,2013-06-08 15:53:00,
2013-06-08 12:03:00,67.0,61.0,29.70,West,274,1.0,10.0,81,0.00,,,2.45,,2013-06-08 16:03:00,
2013-06-08 12:12:00,67.0,61.0,29.70,West,274,1.0,10.0,81,0.00,,,2.45,,2013-06-08 16:12:00,
2013-06-08 12:23:00,67.0,60.0,29.70,WNW,295,6.0,16.0,78,0.00,,,2.44,,2013-06-08 16:23:00,
2013-06-08 12:33:00,69.0,61.0,29.70,West,270,2.0,12.0,76,0.00,,,2.41,,2013-06-08 16:33:00,
2013-06-08 12:42:00,69.0,61.0,29.70,West,270,2.0,12.0,76,0.00,,,2.41,,2013-06-08 16:42:00,
2013-06-08 12:53:00,70.0,61.0,29.70,West,278,3.0,8.0,74,0.00,,,2.41,,2013-06-08 16:53:00,
2013-06-08 13:02:00,71.0,62.0,29.71,WNW,292,3.0,16.0,72,0.00,,,2.37,,2013-06-08 17:02:00,
2013-06-08 13:12:00,71.0,62.0,29.71,WNW,292,3.0,16.0,72,0.00,,,2.37,,2013-06-08 17:12:00,
2013-06-08 13:23:00,71.0,60.0,29.71,WNW,287,3.0,17.0,69,0.00,,,2.36,,2013-06-08 17:23:00,
2013-06-08 13:32:00,73.0,62.0,29.72,WNW,287,3.0,12.0,69,0.00,,,2.33,,2013-06-08 17:32:00,
2013-06-08 13:42:00,73.0,62.0,29.72,WNW,287,3.0,12.0,69,0.00,,,2.33,,2013-06-08 17:42:00,
2013-06-08 13:52:00,73.0,62.0,29.72,WNW,284,3.0,16.0,68,0.00,,,2.31,,2013-06-08 17:52:00,
2013-06-08 14:02:00,74.0,61.0,29.72,West,280,4.0,12.0,65,0.00,,,2.27,,2013-06-08 18:02:00,
2013-06-08 14:12:00,74.0,61.0,29.72,West,280,4.0,12.0,65,0.00,,,2.27,,2013-06-08 18:12:00,
2013-06-08 14:22:00,74.0,62.0,29.72,WSW,253,3.0,12.0,67,0.00,,,2.26,,2013-06-08 18:22:00,
2013-06-08 14:32:00,75.0,62.0,29.73,West,260,4.0,16.0,64,0.00,,,2.23,,2013-06-08 18:32:00,
2013-06-08 14:42:00,75.0,62.0,29.73,West,260,4.0,16.0,64,0.00,,,2.23,,2013-06-08 18:42:00,
2013-06-08 14:52:00,74.0,61.0,29.73,WSW,243,3.0,12.0,65,0.00,,,2.22,,2013-06-08 18:52:00,
2013-06-08 15:03:00,75.0,62.0,29.74,NW,306,3.0,10.0,65,0.00,,,2.18,,2013-06-08 19:03:00,
2013-06-08 15:12:00,75.0,62.0,29.74,NW,306,3.0,10.0,65,0.00,,,2.18,,2013-06-08 19:12:00,
2013-06-08 15:22:00,76.0,64.0,29.74,WNW,290,1.0,11.0,66,0.00,,,2.17,,2013-06-08 19:22:00,
2013-06-08 15:32:00,76.0,63.0,29.74,West,263,2.0,6.0,65,0.00,,,2.15,,2013-06-08 19:32:00,
2013-06-08 15:42:00,76.0,63.0,29.74,West,263,2.0,6.0,65,0.00,,,2.15,,2013-06-08 19:42:00,
2013-06-08 15:53:00,77.0,63.0,29.74,West,281,1.0,7.0,63,0.00,,,2.13,,2013-06-08 19:53:00,
2013-06-08 16:02:00,76.0,62.0,29.75,West,280,1.0,6.0,63,0.00,,,2.12,,2013-06-08 20:02:00,
2013-06-08 16:12:00,76.0,62.0,29.75,West,280,1.0,6.0,63,0.00,,,2.12,,2013-06-08 20:12:00,
2013-06-08 16:22:00,76.0,63.0,29.75,West,272,3.0,10.0,64,0.00,,,2.11,,2013-06-08 20:22:00,
2013-06-08 16:32:00,77.0,64.0,29.76,West,281,1.0,14.0,64,0.00,,,2.09,,2013-06-08 20:32:00,
2013-06-08 16:42:00,77.0,64.0,29.76,West,281,1.0,14.0,64,0.00,,,2.09,,2013-06-08 20:42:00,
2013-06-08 16:52:00,76.0,63.0,29.76,West,281,1.0,3.0,65,0.00,,,2.08,,2013-06-08 20:52:00,
2013-06-08 17:02:00,76.0,63.0,29.76,West,260,2.0,7.0,64,0.00,,,2.03,,2013-06-08 21:02:00,
2013-06-08 17:12:00,76.0,63.0,29.76,West,260,2.0,7.0,64,0.00,,,2.03,,2013-06-08 21:12:00,
2013-06-08 17:22:00,76.0,62.0,29.76,West,271,2.0,8.0,63,0.00,,,1.98,,2013-06-08 21:22:00,
2013-06-08 17:33:00,76.0,63.0,29.78,WNW,294,3.0,10.0,64,0.00,,,1.84,,2013-06-08 21:33:00,
2013-06-08 17:43:00,76.0,63.0,29.78,WNW,294,3.0,10.0,64,0.00,,,1.84,,2013-06-08 21:43:00,
2013-06-08 17:52:00,76.0,63.0,29.78,WNW,301,0.0,6.0,64,0.00,,,1.81,,2013-06-08 21:52:00,
2013-06-08 18:02:00,74.0,61.0,29.79,WNW,289,0.0,3.0,65,0.00,,,1.75,,2013-06-08 22:02:00,
2013-06-08 18:12:00,74.0,62.0,29.79,NW,313,0.0,5.0,66,0.00,,,1.73,,2013-06-08 22:12:00,
2013-06-08 18:23:00,74.0,62.0,29.79,NW,313,0.0,5.0,66,0.00,,,1.73,,2013-06-08 22:23:00,
2013-06-08 18:33:00,73.0,61.0,29.80,NW,317,1.0,11.0,66,0.00,,,1.69,,2013-06-08 22:33:00,
2013-06-08 18:42:00,73.0,61.0,29.80,WNW,288,2.0,6.0,66,0.00,,,1.68,,2013-06-08 22:42:00,
2013-06-08 18:52:00,73.0,61.0,29.80,WNW,288,2.0,6.0,66,0.00,,,1.68,,2013-06-08 22:52:00,
2013-06-08 19:02:00,72.0,60.0,29.83,WNW,293,1.0,13.0,66,0.00,,,1.65,,2013-06-08 23:02:00,
2013-06-08 19:12:00,71.0,59.0,29.83,NW,326,2.0,10.0,66,0.00,,,1.65,,2013-06-08 23:12:00,
2013-06-08 19:22:00,71.0,59.0,29.83,NW,326,2.0,10.0,66,0.00,,,1.65,,2013-06-08 23:22:00,
2013-06-08 19:32:00,70.0,59.0,29.84,WNW,284,1.0,7.0,67,0.00,,,1.60,,2013-06-08 23:32:00,
2013-06-08 19:42:00,70.0,59.0,29.84,WNW,284,1.0,7.0,67,0.00,,,1.60,,2013-06-08 23:42:00,
2013-06-08 19:52:00,70.0,59.0,29.84,NW,311,1.0,6.0,68,0.00,,,1.60,,2013-06-08 23:52:00,
2013-06-08 20:02:00,70.0,59.0,29.85,West,271,1.0,3.0,69,0.00,,,1.55,,2013-06-09 00:02:00,
2013-06-08 20:12:00,70.0,59.0,29.85,West,271,1.0,3.0,69,0.00,,,1.55,,2013-06-09 00:12:00,
2013-06-08 20:22:00,70.0,59.0,29.85,NNW,341,0.0,5.0,69,0.00,,,1.54,,2013-06-09 00:22:00,
2013-06-08 20:32:00,69.0,60.0,29.85,NW,312,0.0,1.0,72,0.00,,,1.52,,2013-06-09 00:32:00,
2013-06-08 20:42:00,69.0,60.0,29.85,NW,312,0.0,1.0,72,0.00,,,1.52,,2013-06-09 00:42:00,
2013-06-08 20:52:00,69.0,60.0,29.85,WNW,297,0.0,3.0,72,0.00,,,1.52,,2013-06-09 00:52:00,
2013-06-08 21:02:00,68.0,59.0,29.86,West,277,0.0,2.0,74,0.00,,,1.48,,2013-06-09 01:02:00,
2013-06-08 21:12:00,68.0,60.0,29.86,WSW,256,0.0,0.0,75,0.00,,,1.46,,2013-06-09 01:12:00,
2013-06-08 21:22:00,68.0,60.0,29.86,WSW,256,0.0,0.0,75,0.00,,,1.46,,2013-06-09 01:22:00,
2013-06-08 21:32:00,67.0,59.0,29.88,West,267,0.0,0.0,76,0.00,,,1.37,,2013-06-09 01:32:00,
2013-06-08 21:42:00,67.0,59.0,29.88,West,267,0.0,0.0,76,0.00,,,1.37,,2013-06-09 01:42:00,
2013-06-08 21:52:00,67.0,60.0,29.88,West,261,0.0,0.0,79,0.00,,,1.30,,2013-06-09 01:52:00,
2013-06-08 22:02:00,66.0,60.0,29.89,West,270,0.0,0.0,80,0.00,,,1.22,,2013-06-09 02:02:00,
2013-06-08 22:12:00,66.0,60.0,29.89,West,270,0.0,0.0,80,0.00,,,1.22,,2013-06-09 02:12:00,
2013-06-08 22:22:00,66.0,60.0,29.89,West,261,0.0,0.0,82,0.00,,,1.16,,2013-06-09 02:22:00,
2013-06-08 22:32:00,65.0,60.0,29.90,West,278,0.0,0.0,84,0.00,,,1.06,,2013-06-09 02:32:00,
2013-06-08 22:42:00,65.0,60.0,29.90,West,278,0.0,0.0,84,0.00,,,1.06,,2013-06-09 02:42:00,
2013-06-08 22:52:00,65.0,60.0,29.90,West,275,0.0,0.0,84,0.00,,,1.01,,2013-06-09 02:52:00,
2013-06-08 23:02:00,65.0,60.0,29.91,West,275,0.0,0.0,84,0.00,,,0.97,,2013-06-09 03:02:00,
2013-06-08 23:12:00,65.0,60.0,29.91,West,275,0.0,0.0,84,0.00,,,0.97,,2013-06-09 03:12:00,
2013-06-08 23:22:00,65.0,60.0,29.91,West,275,0.0,0.0,84,0.00,,,0.96,,2013-06-09 03:22:00,
2013-06-08 23:33:00,65.0,60.0,29.91,West,275,0.0,0.0,84,0.00,,,0.95,,2013-06-09 03:33:00,
2013-06-08 23:43:00,65.0,60.0,29.91,West,275,0.0,0.0,84,0.00,,,0.95,,2013-06-09 03:43:00,
2013-06-08 23:53:00,65.0,60.0,29.91,NW,311,0.0,0.0,84,0.00,,,0.95,,2013-06-09 03:53:00,